SCP
0 0 0 0 0 0 0 0 -0 -0 -0 0 0 0 0 0 0 0 0 0 0 0 0 0 -0 0 0 0 0 0 0 0 0 0 0 0 0 0 0 0 0 1 1
0 0 0 0 0 0 0 -0 -0 0 0 0 0 0 0 0 0 0 0 0 0 0 0 0 0 0 0 0 0 0 0 0 0 0 0 0 0 0 0 0 0 0 0
0 0 0 0 0 0 0 0 0 0 0 0 0 0 0 0 0 0 0 0 0 0 0 0 0 0 0 0 0 0 0 0 0 0 0 0 0 0 0 0 0 0 0
0 0 0 0 0 0 0 0 0 0 0 0 0 0 0 0 0 0 0 0 0 0 0 0 0 0 0 0 0 0 0 0 0 0 0 0 0 0 0 0 0 0 0
0 0 0 0 0 0 0 0 0 0 0 0 -0 0 0 0 0 0 0 0 0 0 0 0 0 0 0 0 0 0 0 0 0 0 0 0 0 0 0 0 0 0 0
0 0 0 0 0 0 0 0 0 0 0 0 0 0 0 0 0 0 0 0 0 0 0 0 0 0 0 0 -0 0 0 0 0 0 0 0 0 0 0 0 0 0 0
0 0 0 0 0 0 0 0 0 0 0 0 0 0 0 0 0 0 0 0 0 0 0 0 0 0 -0 0 0 0 0 0 0 0 0 0 0 0 0 0 0 0 0
0 0 0 0 0 0 0 0 0 0 0 0 0 0 0 0 0 0 0 0 0 0 0 0 0 0 -0 0 0 0 0 0 0 0 0 0 0 0 0 0 0 0 0
0 0 0 0 0 0 0 0 0 0 0 0 0 0 0 0 0 0 0 0 0 0 0 0 0 0 0 0 0 0 0 0 0 0 0 0 0 0 0 0 0 0 0
0 0 0 0 0 0 0 0 0 0 0 0 0 0 0 0 0 0 0 0 0 0 -0 -0 -0 0 0 0 0 0 0 0 0 0 0 0 0 0 0 0 0 0 0
0 0 0 0 0 0 0 0 0 0 0 0 0 0 0 0 0 0 0 0 0 0 -0 0 0 0 0 0 0 0 0 0 0 0 0 0 0 0 0 0 0 -0 0
0 0 0 0 0 0 0 0 0 0 0 0 0 0 -0 0 0 0 0 0 0 0 -0 0 0 0 0 0 0 0 0 0 0 0 0 0 0 0 0 0 0 -0 1
0 0 0 0 0 0 0 0 0 0 0 0 0 -0 -0 -0 0 0 0 0 0 0 0 -0 -0 0 0 0 0 0 0 0 0 0 0 0 0 0 0 0 -0 -0 -0
0 0 0 0 0 0 0 0 0 0 0 0 0 0 0 0 -0 0 0 0 0 0 0 0 -0 0 0 0 0 0 0 0 0 0 0 0 0 0 -0 0 0 0 -0
0 0 0 0 0 0 0 0 0 0 0 0 0 0 0 0 0 0 0 0 0 0 0 0 0 0 0 0 0 0 0 -0 0 0 0 0 0 -0 -0 -0 -0 -0 -0
0 0 0 0 0 0 0 0 0 0 0 0 0 0 0 0 0 0 0 0 0 0 0 0 0 0 0 0 0 0 0 -0 -0 0 0 -0 -0 -0 -0 -0 -0 -0 -0
0 0 0 0 0 0 0 0 0 0 0 0 0 0 0 0 0 -0 -0 0 0 0 -0 -0 0 0 0 0 0 0 0 0 0 -0 -0 -0 -0 -0 -0 -0 -0 -0 -0
0 0 0 0 0 0 0 0 0 0 0 0 0 0 0 0 0 -0 -0 0 -0 -0 0 0 0 0 0 0 0 0 0 0 0 -0 -0 -0 -0 -0 -0 -0 -0 -0 -0
0 0 0 0 0 0 0 0 0 0 0 0 0 0 0 0 -0 -0 -0 0 0 0 0 -0 0 0 0 0 0 0 0 0 0 -0 -0 -0 -0 -0 -0 -0 -0 -0 -0
0 0 0 0 0 0 0 0 0 0 0 0 0 0 0 0 0 0 -0 0 -0 -0 -0 -0 0 0 0 0 0 0 -0 -0 0 0 -0 -0 -0 -0 -0 -0 -0 -0 -0
0 0 0 0 0 0 0 0 0 0 0 0 0 0 0 0 0 -0 -0 -0 0 -0 -0 -0 0 0 0 0 0 0 -0 -0 -0 0 -0 0 -0 0 0 0 0 0 0
0 0 0 0 0 0 0 0 0 0 0 -0 -0 0 -0 -0 -0 -0 -0 0 0 0 -0 0 0 0 0 -0 -0 -0 0 0 0 0 0 0 -0 -0 -0 -0 0 0 0
0 0 -0 -0 0 0 -0 0 -0 0 -0 -0 -0 -0 -0 -0 -0 0 0 0 -0 0 0 0 0 0 0 0 -0 -0 -0 0 -0 0 0 0 0 0 -0 -0 -0 0 0
0 -0 -0 0 0 -0 -0 -0 -0 0 0 0 -0 -0 0 0 0 0 0 -0 0 0 -0 0 0 0 0 0 0 0 0 0 0 0 0 0 0 0 0 -0 -0 -0 -0
-0 -0 0 0 0 0 -0 -0 0 0 -0 -0 0 0 0 0 0 0 0 0 0 0 0 0 0 -0 0 0 0 0 0 0 0 0 0 0 0 0 0 0 0 -0 -0
0 0 0 0 0 0 0 0 0 0 0 0 0 0 0 0 0 0 0 0 0 0 0 0 0 -0 0 0 0 0 0 0 0 0 0 0 0 0 0 -0 -0 0 0
Wind_Speed_500mb
23 17 19 28 30 31 34 56 45 49 52 52 51 61 58 63 51 47 45 45 44 43 45 43 40 34 38 40 38 42 43 43 47 54 62 69 71 77 79 79 76 78 78
23 25 21 21 33 38 46 51 40 46 55 65 66 54 50 48 49 45 40 45 31 48 36 25 24 38 40 42 44 44 39 43 47 48 53 63 68 72 77 81 85 84 81
20 25 22 22 35 40 50 38 50 69 62 61 52 51 52 46 34 38 40 43 36 29 32 27 34 47 50 51 43 43 44 43 44 46 51 55 63 68 73 79 84 89 89
43 49 53 34 38 49 54 53 54 60 68 53 48 43 53 44 46 41 33 37 36 38 43 44 49 53 46 40 44 47 48 49 53 50 52 58 59 63 73 76 80 85 90
52 47 42 46 53 54 51 52 60 62 53 51 41 45 46 47 30 21 28 28 32 34 35 42 37 39 40 41 46 41 44 52 52 50 53 59 65 68 68 74 76 79 85
41 47 43 38 42 47 56 57 52 53 38 37 42 47 55 32 49 28 30 30 25 34 32 39 45 38 40 41 43 46 48 48 39 41 51 58 54 56 64 71 78 79 81
43 47 41 45 55 60 48 44 52 32 35 38 43 50 47 32 23 26 28 32 32 32 36 32 41 41 42 44 43 40 36 34 39 41 45 40 43 42 47 58 69 80 88
33 39 49 43 53 55 22 36 32 31 34 32 41 46 35 45 27 41 23 31 28 37 36 35 40 40 44 40 30 31 38 45 40 40 39 38 45 40 42 51 61 73 82
33 42 45 34 43 56 20 27 30 27 33 32 24 32 23 18 58 26 35 28 38 34 39 43 36 38 31 32 32 39 41 41 38 36 36 36 42 37 35 43 63 80 81
42 35 37 39 42 45 20 20 24 24 28 30 34 23 26 35 41 36 40 32 32 40 39 41 37 27 33 34 34 36 46 46 43 43 42 41 42 47 57 55 69 88 82
31 27 34 35 43 29 21 22 21 25 23 29 23 27 34 32 27 35 39 47 39 32 38 39 31 33 28 31 36 39 48 50 51 44 39 40 44 44 50 53 68 90 74
33 29 30 34 32 29 22 25 23 21 20 23 22 21 23 29 35 34 37 37 39 42 33 36 24 28 30 30 31 36 43 47 44 38 36 37 38 39 43 41 53 87 36
25 27 27 32 34 25 25 29 24 21 20 25 25 20 20 21 29 30 35 36 42 42 27 39 48 30 28 35 35 38 35 46 43 37 37 37 37 35 34 39 38 27 44
30 29 32 30 28 28 31 31 24 22 17 19 28 22 26 23 21 25 39 34 45 40 33 34 52 29 32 32 38 37 31 39 39 35 34 35 38 40 34 28 28 9 20
30 33 30 31 28 25 28 24 20 22 18 16 19 25 30 22 28 30 30 30 31 29 33 37 48 34 30 35 34 35 28 25 36 34 31 33 35 36 36 32 24 18 13
33 33 33 33 26 25 25 21 17 16 16 14 17 23 29 20 21 33 33 30 36 32 27 34 42 34 28 32 33 25 20 21 34 36 35 32 37 37 37 35 30 26 21
31 31 30 29 22 18 16 14 10 16 17 27 27 20 25 23 29 36 35 28 30 26 33 31 47 25 24 31 27 21 15 15 25 29 32 34 38 39 40 41 38 33 28
26 26 25 20 14 15 13 7 14 18 19 25 28 23 19 26 32 37 44 17 28 28 30 38 31 15 29 26 25 21 19 14 16 24 28 31 37 39 39 40 39 36 31
26 29 24 18 18 13 7 6 12 15 22 28 22 18 18 27 33 36 43 20 18 24 30 22 11 16 18 24 27 23 18 11 13 18 25 31 36 40 43 44 42 38 36
25 22 24 18 17 15 8 15 18 21 18 25 17 15 19 24 31 34 37 18 16 22 19 13 4 11 16 21 23 27 28 22 18 26 30 36 40 44 48 53 56 49 41
30 26 23 18 20 5 15 20 27 25 22 20 18 21 22 26 27 35 31 23 14 13 6 10 12 16 19 21 20 16 19 26 26 35 41 44 49 54 60 66 68 68 64
22 21 19 18 18 22 27 29 31 28 17 17 16 20 26 18 23 24 24 18 14 10 5 6 11 15 20 24 19 15 7 5 28 33 38 47 55 59 60 65 72 76 75
26 20 25 29 26 20 24 23 17 10 6 12 13 17 20 21 18 15 10 9 8 8 9 10 12 15 17 21 18 20 22 27 32 32 29 31 36 39 52 57 61 69 70
29 25 28 26 19 22 22 22 15 13 13 6 13 22 20 13 12 6 9 9 10 15 18 11 12 16 16 21 24 20 22 25 27 22 25 20 13 24 41 49 48 55 61
28 20 17 20 22 25 22 13 21 18 13 13 19 16 11 12 14 11 12 15 21 24 18 16 14 16 15 14 16 16 19 21 27 29 23 24 25 28 37 39 38 48 53
19 23 27 29 28 27 26 18 9 4 13 15 16 22 23 21 19 19 22 23 25 22 20 16 18 19 20 17 17 26 32 21 19 19 30 25 23 15 31 29 33 51 50
Wind_Direction_500mb
326 318 329 350 337 319 302 329 346 331 330 325 312 305 311 316 317 306 310 310 303 307 310 305 307 312 312 314 314 310 297 289 284 275 271 272 268 263 257 255 254 253 251
303 320 331 329 324 307 309 338 331 319 308 307 310 319 313 307 301 297 304 315 326 320 311 306 295 309 316 311 313 313 304 291 290 288 277 272 271 268 264 259 255 252 252
288 301 308 327 313 302 325 330 308 315 317 316 318 312 315 308 325 317 309 313 309 306 329 321 317 318 314 316 316 314 315 309 301 296 291 283 274 271 268 262 258 255 252
303 302 300 309 305 311 317 311 317 312 317 319 319 320 330 333 325 315 321 319 317 318 303 304 313 311 312 312 310 305 307 305 301 296 290 288 284 278 273 269 261 256 254
293 298 302 313 310 314 320 314 314 319 317 326 331 329 329 325 332 325 328 311 319 334 324 329 327 327 319 310 312 304 295 295 293 299 298 296 286 278 274 271 268 262 254
292 283 300 312 306 312 323 324 322 320 328 334 333 337 342 351 349 335 311 318 326 316 318 329 314 309 312 306 301 300 305 304 305 316 312 307 302 288 275 268 267 263 261
286 289 304 309 313 323 331 316 320 337 341 344 334 332 348 344 339 349 359 340 325 326 334 335 334 323 318 313 308 308 308 321 320 320 321 323 317 300 290 280 272 268 262
283 310 313 315 314 331 332 318 332 340 333 338 341 343 335 342 322 343 339 345 315 335 339 336 331 316 319 324 332 332 323 319 324 324 317 308 316 322 316 295 279 267 262
292 309 315 302 318 326 313 313 334 322 331 340 342 333 324 318 331 329 341 351 333 338 334 327 322 321 344 344 328 329 334 327 318 324 321 318 297 312 326 320 320 288 258
298 316 289 297 313 321 310 315 318 330 335 345 327 315 313 311 323 326 326 334 334 344 333 333 339 344 351 349 347 346 343 337 319 311 322 317 314 306 293 289 303 317 260
311 293 289 292 314 309 302 297 313 322 341 325 330 327 327 329 326 324 323 329 334 331 326 331 337 342 353 350 350 345 346 346 343 341 332 320 311 316 319 291 324 299 263
304 295 299 316 306 301 296 307 301 309 310 317 317 325 334 324 335 330 323 325 326 333 343 332 351 352 349 347 346 347 346 345 347 354 350 352 351 326 340 332 293 345 202
295 304 314 316 304 309 310 299 308 306 300 317 329 334 316 319 322 343 341 333 336 347 353 348 356 340 344 349 347 351 353 350 351 355 356 3 1 342 352 360 16 90 74
291 294 300 301 302 303 303 302 302 302 309 324 333 320 325 330 317 323 330 330 331 340 340 344 353 335 349 347 342 339 344 357 355 358 1 2 8 8 8 17 28 45 71
306 297 293 297 294 300 292 296 304 311 309 323 310 319 321 343 354 344 338 328 313 319 318 331 339 331 340 344 343 343 350 1 7 7 7 11 14 17 22 27 28 38 36
296 293 290 299 293 297 294 294 305 314 305 300 326 312 333 334 337 343 337 337 327 310 308 316 333 323 336 346 346 356 2 16 27 20 23 22 30 32 35 42 47 51 57
316 318 318 310 305 302 303 304 317 332 321 312 305 310 321 326 323 336 331 335 324 328 313 325 331 313 342 346 352 356 1 16 34 32 27 46 49 50 49 51 52 53 60
340 334 332 327 327 319 300 330 340 317 311 309 308 307 319 317 319 325 321 323 324 324 314 314 311 322 351 1 3 4 9 5 21 23 28 49 54 51 47 48 46 46 45
334 333 337 332 321 324 331 332 320 327 326 320 314 310 323 314 318 323 328 329 327 323 332 345 298 340 358 13 16 13 5 10 21 35 54 56 58 52 49 46 41 36 38
335 350 347 344 334 335 245 245 305 312 310 321 327 324 323 319 316 325 332 341 319 319 344 4 38 358 9 1 4 25 31 34 46 61 67 66 63 58 53 47 42 36 31
329 336 333 337 344 300 280 292 301 307 320 330 331 320 307 317 328 333 338 342 351 338 14 26 39 41 19 11 12 359 9 34 73 82 78 72 66 60 54 46 40 39 39
338 341 331 338 327 309 297 297 301 303 307 318 311 318 332 336 307 315 330 344 358 17 80 93 61 25 20 20 10 20 1 76 82 82 70 67 61 50 46 44 40 34 34
340 344 336 342 345 340 343 338 325 339 347 346 326 315 329 314 328 348 352 359 26 67 93 129 51 31 30 29 48 52 75 101 102 89 72 53 43 43 40 36 35 34 32
346 340 345 359 14 12 20 31 46 45 41 26 317 336 344 347 359 38 36 55 79 97 106 92 50 42 44 45 46 54 73 84 88 78 61 45 22 34 41 31 31 30 33
348 355 11 27 34 27 17 43 60 54 38 340 350 357 357 44 67 51 71 102 102 102 88 75 55 43 30 26 32 68 64 79 85 66 67 59 69 74 42 46 35 26 26
39 30 56 54 43 21 21 22 11 320 41 38 42 70 70 69 77 71 83 89 98 91 88 64 40 25 19 35 62 80 69 80 44 44 32 34 56 32 47 42 33 34 33
Wind_Speed_850mb
23 17 19 28 30 31 34 56 45 49 52 52 51 61 58 63 51 47 45 45 44 43 45 43 40 34 38 40 38 42 43 43 47 54 62 69 71 77 79 79 76 78 78
23 25 21 21 33 38 46 51 40 46 55 65 66 54 50 48 49 45 40 45 31 48 36 25 24 38 40 42 44 44 39 43 47 48 53 63 68 72 77 81 85 84 81
20 25 22 22 35 40 50 38 50 69 62 61 52 51 52 46 34 38 40 43 36 29 32 27 34 47 50 51 43 43 44 43 44 46 51 55 63 68 73 79 84 89 89
43 49 53 34 38 49 54 53 54 60 68 53 48 43 53 44 46 41 33 37 36 38 43 44 49 53 46 40 44 47 48 49 53 50 52 58 59 63 73 76 80 85 90
52 47 42 46 53 54 51 52 60 62 53 51 41 45 46 47 30 21 28 28 32 34 35 42 37 39 40 41 46 41 44 52 52 50 53 59 65 68 68 74 76 79 85
41 47 43 38 42 47 56 57 52 53 38 37 42 47 55 32 49 28 30 30 25 34 32 39 45 38 40 41 43 46 48 48 39 41 51 58 54 56 64 71 78 79 81
43 47 41 45 55 60 48 44 52 32 35 38 43 50 47 32 23 26 28 32 32 32 36 32 41 41 42 44 43 40 36 34 39 41 45 40 43 42 47 58 69 80 88
33 39 49 43 53 55 22 36 32 31 34 32 41 46 35 45 27 41 23 31 28 37 36 35 40 40 44 40 30 31 38 45 40 40 39 38 45 40 42 51 61 73 82
33 42 45 34 43 56 20 27 30 27 33 32 24 32 23 18 58 26 35 28 38 34 39 43 36 38 31 32 32 39 41 41 38 36 36 36 42 37 35 43 63 80 81
42 35 37 39 42 45 20 20 24 24 28 30 34 23 26 35 41 36 40 32 32 40 39 41 37 27 33 34 34 36 46 46 43 43 42 41 42 47 57 55 69 88 82
31 27 34 35 43 29 21 22 21 25 23 29 23 27 34 32 27 35 39 47 39 32 38 39 31 33 28 31 36 39 48 50 51 44 39 40 44 44 50 53 68 90 74
33 29 30 34 32 29 22 25 23 21 20 23 22 21 23 29 35 34 37 37 39 42 33 36 24 28 30 30 31 36 43 47 44 38 36 37 38 39 43 41 53 87 36
25 27 27 32 34 25 25 29 24 21 20 25 25 20 20 21 29 30 35 36 42 42 27 39 48 30 28 35 35 38 35 46 43 37 37 37 37 35 34 39 38 27 44
30 29 32 30 28 28 31 31 24 22 17 19 28 22 26 23 21 25 39 34 45 40 33 34 52 29 32 32 38 37 31 39 39 35 34 35 38 40 34 28 28 9 20
30 33 30 31 28 25 28 24 20 22 18 16 19 25 30 22 28 30 30 30 31 29 33 37 48 34 30 35 34 35 28 25 36 34 31 33 35 36 36 32 24 18 13
33 33 33 33 26 25 25 21 17 16 16 14 17 23 29 20 21 33 33 30 36 32 27 34 42 34 28 32 33 25 20 21 34 36 35 32 37 37 37 35 30 26 21
31 31 30 29 22 18 16 14 10 16 17 27 27 20 25 23 29 36 35 28 30 26 33 31 47 25 24 31 27 21 15 15 25 29 32 34 38 39 40 41 38 33 28
26 26 25 20 14 15 13 7 14 18 19 25 28 23 19 26 32 37 44 17 28 28 30 38 31 15 29 26 25 21 19 14 16 24 28 31 37 39 39 40 39 36 31
26 29 24 18 18 13 7 6 12 15 22 28 22 18 18 27 33 36 43 20 18 24 30 22 11 16 18 24 27 23 18 11 13 18 25 31 36 40 43 44 42 38 36
25 22 24 18 17 15 8 15 18 21 18 25 17 15 19 24 31 34 37 18 16 22 19 13 4 11 16 21 23 27 28 22 18 26 30 36 40 44 48 53 56 49 41
30 26 23 18 20 5 15 20 27 25 22 20 18 21 22 26 27 35 31 23 14 13 6 10 12 16 19 21 20 16 19 26 26 35 41 44 49 54 60 66 68 68 64
22 21 19 18 18 22 27 29 31 28 17 17 16 20 26 18 23 24 24 18 14 10 5 6 11 15 20 24 19 15 7 5 28 33 38 47 55 59 60 65 72 76 75
26 20 25 29 26 20 24 23 17 10 6 12 13 17 20 21 18 15 10 9 8 8 9 10 12 15 17 21 18 20 22 27 32 32 29 31 36 39 52 57 61 69 70
29 25 28 26 19 22 22 22 15 13 13 6 13 22 20 13 12 6 9 9 10 15 18 11 12 16 16 21 24 20 22 25 27 22 25 20 13 24 41 49 48 55 61
28 20 17 20 22 25 22 13 21 18 13 13 19 16 11 12 14 11 12 15 21 24 18 16 14 16 15 14 16 16 19 21 27 29 23 24 25 28 37 39 38 48 53
19 23 27 29 28 27 26 18 9 4 13 15 16 22 23 21 19 19 22 23 25 22 20 16 18 19 20 17 17 26 32 21 19 19 30 25 23 15 31 29 33 51 50
Wind_Direction_850mb
326 318 329 350 337 319 302 329 346 331 330 325 312 305 311 316 317 306 310 310 303 307 310 305 307 312 312 314 314 310 297 289 284 275 271 272 268 263 257 255 254 253 251
303 320 331 329 324 307 309 338 331 319 308 307 310 319 313 307 301 297 304 315 326 320 311 306 295 309 316 311 313 313 304 291 290 288 277 272 271 268 264 259 255 252 252
288 301 308 327 313 302 325 330 308 315 317 316 318 312 315 308 325 317 309 313 309 306 329 321 317 318 314 316 316 314 315 309 301 296 291 283 274 271 268 262 258 255 252
303 302 300 309 305 311 317 311 317 312 317 319 319 320 330 333 325 315 321 319 317 318 303 304 313 311 312 312 310 305 307 305 301 296 290 288 284 278 273 269 261 256 254
293 298 302 313 310 314 320 314 314 319 317 326 331 329 329 325 332 325 328 311 319 334 324 329 327 327 319 310 312 304 295 295 293 299 298 296 286 278 274 271 268 262 254
292 283 300 312 306 312 323 324 322 320 328 334 333 337 342 351 349 335 311 318 326 316 318 329 314 309 312 306 301 300 305 304 305 316 312 307 302 288 275 268 267 263 261
286 289 304 309 313 323 331 316 320 337 341 344 334 332 348 344 339 349 359 340 325 326 334 335 334 323 318 313 308 308 308 321 320 320 321 323 317 300 290 280 272 268 262
283 310 313 315 314 331 332 318 332 340 333 338 341 343 335 342 322 343 339 345 315 335 339 336 331 316 319 324 332 332 323 319 324 324 317 308 316 322 316 295 279 267 262
292 309 315 302 318 326 313 313 334 322 331 340 342 333 324 318 331 329 341 351 333 338 334 327 322 321 344 344 328 329 334 327 318 324 321 318 297 312 326 320 320 288 258
298 316 289 297 313 321 310 315 318 330 335 345 327 315 313 311 323 326 326 334 334 344 333 333 339 344 351 349 347 346 343 337 319 311 322 317 314 306 293 289 303 317 260
311 293 289 292 314 309 302 297 313 322 341 325 330 327 327 329 326 324 323 329 334 331 326 331 337 342 353 350 350 345 346 346 343 341 332 320 311 316 319 291 324 299 263
304 295 299 316 306 301 296 307 301 309 310 317 317 325 334 324 335 330 323 325 326 333 343 332 351 352 349 347 346 347 346 345 347 354 350 352 351 326 340 332 293 345 202
295 304 314 316 304 309 310 299 308 306 300 317 329 334 316 319 322 343 341 333 336 347 353 348 356 340 344 349 347 351 353 350 351 355 356 3 1 342 352 360 16 90 74
291 294 300 301 302 303 303 302 302 302 309 324 333 320 325 330 317 323 330 330 331 340 340 344 353 335 349 347 342 339 344 357 355 358 1 2 8 8 8 17 28 45 71
306 297 293 297 294 300 292 296 304 311 309 323 310 319 321 343 354 344 338 328 313 319 318 331 339 331 340 344 343 343 350 1 7 7 7 11 14 17 22 27 28 38 36
296 293 290 299 293 297 294 294 305 314 305 300 326 312 333 334 337 343 337 337 327 310 308 316 333 323 336 346 346 356 2 16 27 20 23 22 30 32 35 42 47 51 57
316 318 318 310 305 302 303 304 317 332 321 312 305 310 321 326 323 336 331 335 324 328 313 325 331 313 342 346 352 356 1 16 34 32 27 46 49 50 49 51 52 53 60
340 334 332 327 327 319 300 330 340 317 311 309 308 307 319 317 319 325 321 323 324 324 314 314 311 322 351 1 3 4 9 5 21 23 28 49 54 51 47 48 46 46 45
334 333 337 332 321 324 331 332 320 327 326 320 314 310 323 314 318 323 328 329 327 323 332 345 298 340 358 13 16 13 5 10 21 35 54 56 58 52 49 46 41 36 38
335 350 347 344 334 335 245 245 305 312 310 321 327 324 323 319 316 325 332 341 319 319 344 4 38 358 9 1 4 25 31 34 46 61 67 66 63 58 53 47 42 36 31
329 336 333 337 344 300 280 292 301 307 320 330 331 320 307 317 328 333 338 342 351 338 14 26 39 41 19 11 12 359 9 34 73 82 78 72 66 60 54 46 40 39 39
338 341 331 338 327 309 297 297 301 303 307 318 311 318 332 336 307 315 330 344 358 17 80 93 61 25 20 20 10 20 1 76 82 82 70 67 61 50 46 44 40 34 34
340 344 336 342 345 340 343 338 325 339 347 346 326 315 329 314 328 348 352 359 26 67 93 129 51 31 30 29 48 52 75 101 102 89 72 53 43 43 40 36 35 34 32
346 340 345 359 14 12 20 31 46 45 41 26 317 336 344 347 359 38 36 55 79 97 106 92 50 42 44 45 46 54 73 84 88 78 61 45 22 34 41 31 31 30 33
348 355 11 27 34 27 17 43 60 54 38 340 350 357 357 44 67 51 71 102 102 102 88 75 55 43 30 26 32 68 64 79 85 66 67 59 69 74 42 46 35 26 26
39 30 56 54 43 21 21 22 11 320 41 38 42 70 70 69 77 71 83 89 98 91 88 64 40 25 19 35 62 80 69 80 44 44 32 34 56 32 47 42 33 34 33